Hourly Weather Malanje

Today, 10 July, Friday

Time Temperature Precipitation Wind Pressure Humidity
00:00 +18°C° 0 mm 2 mps 665 mmHg 67%
01:00 +17°C° 0 mm 2 mps 665 mmHg 78%
02:00 +16°C° 0 mm 2 mps 665 mmHg 82%
03:00 +15°C° 0 mm 2 mps 664 mmHg 87%
04:00 +15°C° 0 mm 1 mps 664 mmHg 92%
05:00 +15°C° 0 mm 1 mps 664 mmHg 88%
06:00 +16°C° 0 mm 1 mps 665 mmHg 84%
07:00 +18°C° 0 mm 1 mps 666 mmHg 78%
08:00 +22°C° 0 mm 1 mps 666 mmHg 61%
09:00 +26°C° 0 mm 1 mps 667 mmHg 45%
10:00 +29°C° 0 mm 2 mps 668 mmHg 29%
11:00 +33°C° 0 mm 1 mps 668 mmHg 24%
12:00 +36°C° 0 mm 1 mps 668 mmHg 20%
13:00 +37°C° 0 mm 0 mps 668 mmHg 15%
14:00 +36°C° 0 mm 0 mps 667 mmHg 16%
15:00 +34°C° 0 mm 0 mps 666 mmHg 16%
16:00 +33°C° 0 mm 0 mps 665 mmHg 16%
17:00 +32°C° 0 mm 1 mps 665 mmHg 22%
18:00 +28°C° 0 mm 1 mps 664 mmHg 27%
19:00 +25°C° 0 mm 2 mps 664 mmHg 32%
20:00 +23°C° 0 mm 2 mps 664 mmHg 41%
21:00 +21°C° 0 mm 2 mps 664 mmHg 50%
22:00 +19°C° 0 mm 2 mps 665 mmHg 59%
23:00 +18°C° 0 mm 2 mps 665 mmHg 65%

Tomorrow, 11 July, Saturday

Time Temperature Precipitation Wind Pressure Humidity
00:00 +18°C° 0 mm 2 mps 664 mmHg 72%
01:00 +17°C° 0 mm 2 mps 664 mmHg 78%
02:00 +16°C° 0 mm 1 mps 664 mmHg 83%
03:00 +15°C° 0 mm 1 mps 664 mmHg 87%
04:00 +14°C° 0 mm 1 mps 663 mmHg 92%
05:00 +15°C° 0 mm 1 mps 664 mmHg 88%
06:00 +15°C° 0 mm 1 mps 664 mmHg 84%
07:00 +16°C° 0 mm 1 mps 665 mmHg 80%
08:00 +21°C° 0 mm 1 mps 666 mmHg 63%
09:00 +25°C° 0 mm 2 mps 667 mmHg 46%
10:00 +30°C° 0 mm 2 mps 668 mmHg 29%
11:00 +32°C° 0 mm 2 mps 667 mmHg 24%
12:00 +35°C° 0 mm 2 mps 667 mmHg 20%
13:00 +37°C° 0 mm 2 mps 666 mmHg 16%
14:00 +36°C° 0 mm 2 mps 666 mmHg 15%
15:00 +36°C° 0 mm 2 mps 666 mmHg 15%
16:00 +36°C° 0 mm 2 mps 665 mmHg 15%
17:00 +32°C° 0 mm 2 mps 665 mmHg 19%
18:00 +28°C° 0 mm 1 mps 664 mmHg 24%
19:00 +25°C° 0 mm 1 mps 664 mmHg 28%
20:00 +23°C° 0 mm 1 mps 664 mmHg 39%
21:00 +21°C° 0 mm 2 mps 664 mmHg 51%
22:00 +19°C° 0 mm 2 mps 664 mmHg 62%
23:00 +18°C° 0 mm 2 mps 664 mmHg 67%

Day after tomorrow, 12 July, Sunday

Time Temperature Precipitation Wind Pressure Humidity
00:00 +18°C° 0 mm 1 mps 664 mmHg 71%
01:00 +16°C° 0 mm 1 mps 664 mmHg 75%
02:00 +16°C° 0 mm 1 mps 664 mmHg 79%
03:00 +15°C° 0 mm 1 mps 664 mmHg 83%
04:00 +15°C° 0 mm 1 mps 664 mmHg 86%
05:00 +15°C° 0 mm 1 mps 664 mmHg 84%
06:00 +15°C° 0 mm 1 mps 665 mmHg 82%
07:00 +16°C° 0 mm 1 mps 665 mmHg 79%
08:00 +21°C° 0 mm 1 mps 666 mmHg 61%
09:00 +25°C° 0 mm 2 mps 667 mmHg 43%
10:00 +29°C° 0 mm 3 mps 668 mmHg 25%
11:00 +31°C° 0 mm 3 mps 667 mmHg 22%
12:00 +34°C° 0 mm 3 mps 667 mmHg 18%
13:00 +36°C° 0 mm 3 mps 667 mmHg 15%
14:00 +36°C° 0 mm 3 mps 666 mmHg 15%
15:00 +35°C° 0 mm 3 mps 665 mmHg 15%
16:00 +35°C° 0 mm 3 mps 665 mmHg 15%
17:00 +31°C° 0 mm 2 mps 664 mmHg 19%
18:00 +28°C° 0 mm 1 mps 664 mmHg 22%
19:00 +25°C° 0 mm 1 mps 664 mmHg 26%
20:00 +23°C° 0 mm 1 mps 664 mmHg 38%
21:00 +21°C° 0 mm 1 mps 664 mmHg 49%
22:00 +18°C° 0 mm 2 mps 664 mmHg 61%
23:00 +17°C° 0 mm 2 mps 664 mmHg 71%

13 July, Monday

Time Temperature Precipitation Wind Pressure Humidity
00:00 +16°C° 0 mm 2 mps 664 mmHg 81%
01:00 +15°C° 0 mm 2 mps 664 mmHg 90%
02:00 +15°C° 0 mm 2 mps 664 mmHg 93%
03:00 +14°C° 0 mm 2 mps 664 mmHg 95%
04:00 +14°C° 0 mm 1 mps 663 mmHg 97%
05:00 +14°C° 0 mm 1 mps 664 mmHg 95%
06:00 +14°C° 0 mm 1 mps 664 mmHg 92%
07:00 +15°C° 0 mm 1 mps 665 mmHg 90%
08:00 +20°C° 0 mm 1 mps 666 mmHg 70%
09:00 +24°C° 0 mm 2 mps 667 mmHg 49%
10:00 +29°C° 0 mm 2 mps 667 mmHg 29%
11:00 +30°C° 0 mm 2 mps 667 mmHg 25%
12:00 +32°C° 0 mm 2 mps 666 mmHg 21%
13:00 +35°C° 0 mm 3 mps 666 mmHg 17%
14:00 +35°C° 0 mm 2 mps 665 mmHg 16%
15:00 +35°C° 0 mm 2 mps 665 mmHg 16%
16:00 +34°C° 0 mm 1 mps 664 mmHg 16%
17:00 +31°C° 0 mm 1 mps 664 mmHg 20%
18:00 +28°C° 0 mm 1 mps 664 mmHg 24%
19:00 +22°C° 0 mm 0 mps 663 mmHg 28%
20:00 +23°C° 0 mm 1 mps 664 mmHg 37%
21:00 +21°C° 0 mm 2 mps 664 mmHg 46%
22:00 +20°C° 0 mm 3 mps 664 mmHg 54%
23:00 +19°C° 0 mm 2 mps 664 mmHg 66%

14 July, Tuesday

Time Temperature Precipitation Wind Pressure Humidity
00:00 +17°C° 0 mm 2 mps 664 mmHg 77%
01:00 +16°C° 0 mm 2 mps 664 mmHg 89%
02:00 +15°C° 0 mm 2 mps 664 mmHg 91%
03:00 +15°C° 0 mm 2 mps 664 mmHg 92%
04:00 +15°C° 0 mm 2 mps 664 mmHg 94%
05:00 +15°C° 0 mm 2 mps 664 mmHg 91%
06:00 +16°C° 0 mm 2 mps 665 mmHg 89%
07:00 +16°C° 0 mm 2 mps 665 mmHg 86%
08:00 +21°C° 0 mm 1 mps 666 mmHg 68%
09:00 +24°C° 0 mm 1 mps 667 mmHg 49%
10:00 +28°C° 0 mm 1 mps 667 mmHg 31%
11:00 +30°C° 0 mm 2 mps 667 mmHg 26%
12:00 +32°C° 0 mm 2 mps 667 mmHg 20%
13:00 +35°C° 0 mm 2 mps 666 mmHg 15%
14:00 +35°C° 0 mm 2 mps 665 mmHg 14%
15:00 +35°C° 0 mm 2 mps 665 mmHg 14%
16:00 +35°C° 0 mm 2 mps 664 mmHg 13%
17:00 +30°C° 0 mm 1 mps 664 mmHg 17%
18:00 +27°C° 0 mm 1 mps 663 mmHg 21%
19:00 +22°C° 0 mm 0 mps 663 mmHg 25%
20:00 +23°C° 0 mm 1 mps 664 mmHg 29%
21:00 +22°C° 0 mm 1 mps 664 mmHg 32%
22:00 +21°C° 0 mm 1 mps 664 mmHg 35%
23:00 +20°C° 0 mm 1 mps 664 mmHg 48%

15 July, Wednesday

Time Temperature Precipitation Wind Pressure Humidity
00:00 +18°C° 0 mm 1 mps 664 mmHg 61%
01:00 +16°C° 0 mm 1 mps 664 mmHg 73%
02:00 +15°C° 0 mm 1 mps 664 mmHg 79%
03:00 +14°C° 0 mm 1 mps 664 mmHg 84%
04:00 +14°C° 0 mm 1 mps 664 mmHg 90%
05:00 +14°C° 0 mm 1 mps 664 mmHg 78%
06:00 +14°C° 0 mm 1 mps 665 mmHg 67%
07:00 +15°C° 0 mm 1 mps 665 mmHg 55%
08:00 +19°C° 0 mm 2 mps 666 mmHg 42%
09:00 +24°C° 0 mm 3 mps 667 mmHg 29%
10:00 +28°C° 0 mm 4 mps 668 mmHg 16%
11:00 +30°C° 0 mm 4 mps 668 mmHg 15%
12:00 +33°C° 0 mm 4 mps 667 mmHg 13%
13:00 +34°C° 0 mm 4 mps 667 mmHg 12%
14:00 +34°C° 0 mm 4 mps 666 mmHg 12%
15:00 +34°C° 0 mm 3 mps 666 mmHg 12%
16:00 +34°C° 0 mm 3 mps 665 mmHg 12%
17:00 +30°C° 0 mm 2 mps 665 mmHg 15%
18:00 +27°C° 0 mm 2 mps 665 mmHg 18%
19:00 +24°C° 0 mm 1 mps 665 mmHg 21%
20:00 +23°C° 0 mm 1 mps 665 mmHg 22%
21:00 +22°C° 0 mm 1 mps 665 mmHg 23%
22:00 +20°C° 0 mm 2 mps 666 mmHg 24%
23:00 +19°C° 0 mm 2 mps 666 mmHg 26%
Show more